This is the latest recevied weather packets stored in our database for station/object PA3CPS. If no packets are shown the sender has not sent any weather packets the latest 10 day(s).
| Time | Temp. | Humidity | Pressure | Rain* | Wind** | Luminosity | Snow |
|---|---|---|---|---|---|---|---|
| 1777752546 | 16.67° C | 77% | 1014.1 hPa | 0 mm | - | 0 W/m² | - |
| 1777752246 | 17.22° C | 76% | 1014.1 hPa | 0 mm | - | 0 W/m² | - |
| 1777751960 | 17.22° C | 76% | 1014.1 hPa | 0 mm | - | 0 W/m² | - |
| 1777751646 | 17.22° C | 76% | 1014.2 hPa | 0 mm | - | 0 W/m² | - |
| 1777751345 | 17.22° C | 76% | 1014.2 hPa | 0 mm | - | 0 W/m² | - |
| 1777751042 | 17.22° C | 76% | 1014.2 hPa | 0 mm | - | 0 W/m² | - |
| 1777750743 | 17.78° C | 76% | 1014.3 hPa | 0 mm | - | 0 W/m² | - |
| 1777750442 | 17.78° C | 76% | 1014.2 hPa | 0 mm | - | 0 W/m² | - |
| 1777750142 | 17.78° C | 75% | 1014.3 hPa | 0 mm | - | 0 W/m² | - |
| 1777749843 | 17.78° C | 75% | 1014.2 hPa | 0 mm | - | 0 W/m² | - |
| 1777749543 | 17.78° C | 75% | 1014.2 hPa | 0 mm | - | 0 W/m² | - |
| 1777749242 | 18.33° C | 75% | 1014.1 hPa | 0 mm | - | 0 W/m² | - |
| 1777748943 | 18.33° C | 75% | 1014.1 hPa | 0 mm | - | 0 W/m² | - |
| 1777748643 | 18.33° C | 74% | 1014.2 hPa | 0 mm | - | 0 W/m² | - |
| 1777748342 | 18.33° C | 74% | 1014 hPa | 0 mm | - | 0 W/m² | - |
| 1777748043 | 18.33° C | 73% | 1014 hPa | 0 mm | - | 0 W/m² | - |
| 1777747742 | 18.89° C | 73% | 1014.1 hPa | 0 mm | - | 9 W/m² | - |
| 1777747441 | 18.89° C | 72% | 1014 hPa | 0 mm | - | 12 W/m² | - |
| 1777747140 | 18.89° C | 72% | 1014.1 hPa | 0 mm | - | 18 W/m² | - |
| 1777746838 | 18.89° C | 71% | 1014 hPa | 0 mm | - | 23 W/m² | - |
| 1777746536 | 19.44° C | 71% | 1014.1 hPa | 0 mm | - | 28 W/m² | - |
| 1777746233 | 19.44° C | 71% | 1014.1 hPa | 0 mm | - | 33 W/m² | - |
| 1777745932 | 19.44° C | 71% | 1014.1 hPa | 0 mm | - | 35 W/m² | - |
| 1777745631 | 20° C | 72% | 1014.1 hPa | 0 mm | - | 39 W/m² | - |
| 1777745331 | 20° C | 71% | 1014.2 hPa | 0 mm | - | 40 W/m² | - |
* Rain latest hour (hover to see other rain measurements)
** Current wind speed in m/s (hover to see current wind gust speed)